Home   Weather   Moga   Past weeks

Flag for India Past Weather in Moga, Punjab, India — Yesterday and Last 2 Weeks

Now
48 °F

Fog.


Feels Like: 48 °F
Forecast: 46 / 74 °F
Wind: No wind

Location: Amritsar Airport

Current Time: Jan 22, 2017 at 7:22:38 am

Latest Report: Jan 22, 2017 at 6:30 am


Visibility: 0 mi

Pressure: 30.18 "Hg

Humidity: 100%

Dew Point: 48 °F

Location of MogaLocation

Past Weather in Moga — Graph

°F

Moga Temperature Yesterday

Maximum temperature yesterday: 63 °F (at 2:30 pm)
Minimum temperature yesterday: 46 °F (at 12:00 am)
Average temperature yesterday: 53 °F

High & Low Weather Summary for the Past Weeks

 TemperatureHumidityPressure
High68 °F (Jan 15, 12:00 pm)100% (Jan 7, 5:30 am)30.36 "Hg (Jan 7, 5:30 am)
Low34 °F (Jan 11, 7:00 am)30% (Jan 11, 3:00 pm)29.86 "Hg (Jan 7, 5:30 am)
Average50 °F89%30.08 "Hg
* Reported Jan 7 5:30 am — Jan 22 6:00 am, Moga, Weather by CustomWeather, © 2017

Note: Actual official high and low records may vary slightly from our data, if they occured in-between our weather recording intervals... More about our weather records

Advertising

Moga Weather History for the Previous 24 Hours

Scroll right to see more
 ConditionsComfort  
Time TempWeatherWind HumidityBarometerVisibility
6:00 am
Sun, Jan 22
48 °FFog.No wind100%30.18 "Hg1 mi
5:30 am48 °FFog.1 mph100%30.18 "Hg1 mi
5:00 am48 °FFog.2 mph100%30.18 "Hg1 mi
4:00 am50 °FFog.No wind100%30.18 "Hg1 mi
3:00 am50 °FFog.No wind100%30.18 "Hg1 mi
2:30 am50 °FFog.No wind100%30.18 "Hg1 mi
1:30 am50 °FFog.No wind100%30.18 "Hg1 mi
1:00 am50 °FFog.No wind100%30.18 "Hg1 mi
12:30 am50 °FFog.No wind100%30.18 "Hg1 mi
12:00 am50 °FFog.No wind100%30.18 "Hg1 mi
11:30 pm
Sat, Jan 21
52 °FFog.No wind100%30.18 "Hg1 mi
11:00 pm52 °FFog.No wind100%30.18 "Hg1 mi
10:30 pm52 °FFog.5 mph100%30.18 "Hg1 mi
10:00 pm54 °FFog.1 mph100%30.15 "Hg1 mi
9:30 pm50 °FFog.No wind100%30.15 "Hg1 mi
9:00 pm54 °FFog.No wind100%30.15 "Hg1 mi
8:30 pm54 °FFog.No wind100%30.15 "Hg1 mi
8:00 pm54 °FFog.No wind100%30.12 "Hg2 mi
7:30 pm54 °FFog.No wind100%30.12 "Hg2 mi
7:00 pm55 °FFog.2 mph100%30.12 "Hg2 mi
6:00 pm57 °FFog.No wind100%30.12 "Hg2 mi
5:30 pm57 °FFog.6 mph100%30.12 "Hg2 mi
5:00 pm59 °FFog.3 mph100%30.12 "Hg2 mi
4:30 pm61 °FFog.2 mph94%30.12 "Hg2 mi
4:00 pm61 °FFog.6 mph94%30.12 "Hg2 mi
3:00 pm63 °FFog.2 mph77%30.12 "Hg2 mi
2:30 pm63 °FFog.5 mph83%30.12 "Hg2 mi
2:00 pm61 °FBroken clouds.7 mph83%30.12 "Hg2 mi
1:30 pm61 °FFog.6 mph68%30.15 "Hg2 mi
1:00 pm61 °FFog.8 mph83%30.15 "Hg2 mi
12:30 pm61 °FFog.2 mph83%30.15 "Hg2 mi
9:00 am48 °FFog.2 mph100%30.15 "Hg1 mi
8:30 am46 °FFog.1 mph100%30.12 "Hg1 mi
8:00 am46 °FFog.No wind100%30.12 "Hg1 mi
7:30 am46 °FFog.No wind100%30.09 "Hg1 mi
7:00 am46 °FFog.No wind100%30.09 "Hg1 mi
Weather by CustomWeather, © 2017

See weather overviewHow to use our weather pages